sat.trackr.live / text

‹ back to catalog

STARLINK-30575

NORAD 58052 · 2023-158B

PAYLOAD ACTIVE UNKNOWN

§ Identity

Operator
Country
US
Launch date
2023-10-13
Launch site
AFETR
Launch vehicle
Mass (kg)
RCS (m²)

Purposes: comms

External: N2YO · Heavens-Above · Gunter

§ Orbital elements

Epoch: 2026-05-25T04:15:48.470112Z

Period
94.27 min
Inclination
43.0024°
Eccentricity
0.0000881
Mean motion
15.27575610 rev/d
Perigee alt
482.5 km
Apogee alt
483.7 km
Semi-major
6,861.2 km
B*
-4.9170e-5
RAAN
315.4408°
Arg perigee
287.0580°
Mean anomaly
73.0175°
Rev number
14,526

§ Raw data

STARLINK-305751 58052U 23158B   26145.17764433 -.00001614  00000+0 -49170-4 0  99902 58052  43.0024 315.4408 0000881 287.0580  73.0175 15.27575610145267

JSON: /api/v1/satellites/58052 · /tle

For live sub-satellite position, see the globe view (requires WebGL).

§ Visibility from observer

Set your observer location to see the next 7 days of passes ≥ 10°. The values pass through the URL so the page stays shareable.

No JS? Fill the form by hand. The geolocation button needs JavaScript.